Volver al catálogo

THOR ABLESTAR DEB

ActivoLEO
NORAD 552·DEBRIS·🇺🇸 United States

Lanzado Jun 29, 1961 desde Cape Canaveral Space Force Station

Loading…

Próximos Pases (próximas 24 horas)

TLE

ActualizadoSource: Space-Track

Época: Sep 14, 2026, 13:54 UTC

1 00552U 61015GM  26257.57970620  .00000977  00000-0  68356-3 0  9997
2 00552  67.7360 198.2622 0101262 273.3305  85.6206 13.99818886269216

Sigue THOR ABLESTAR DEB en tiempo real con AllMySat

Download on the App Store